User: anonymous   Login
Location: Betra
(48.4113°N, 8.6634°E)
Time: 09:58:01
(UTC+00:00)
Language:

Cosmos 1025 Rocket - Orbit

View from above orbital plane
View from above orbital plane
View from above satellite
View from above satellite

Ground track
Ground track

The orbit data is extracted from the following two-line orbital elements,

1 10974U 78067B   24197.61006031  .00000886  00000-0  92013-4 0  9990
2 10974  82.4800 239.3537 0018104  55.1923 305.0995 14.88709960470785
Epoch (UTC): 15 July 2024 14:38:29
Eccentricity: 0.0018104
inclination: 82.4800°
perigee height: 589 km
apogee height: 614 km
right ascension of ascending node: 239.3537°
argument of perigee: 55.1923°
revolutions per day: 14.88709960
mean anomaly at epoch: 305.0995°
orbit number at epoch: 47078

The dashed part of the orbit path shows where the satellite is in the earth's shadow,  

DLR